Blacksburg, VA

10:12 PM EDT on April 26, 2018 (GMT -0400)
Virginia Tech

Weather History for KBCB - November, 2011

Change the Weather History Date:

Sunday, November 20, 2011

  Actual Average Record
Temperature  
Mean Temperature 50 °F 42 °F  
Max Temperature 67 °F 54 °F 72 °F (1985)
Min Temperature 33 °F 30 °F 15 °F (1969)
Degree Days  
Heating Degree Days 15 23  
Month to date heating degree days 399 399  
Since 1 July heating degree days 866 926  
Cooling Degree Days 0 0  
Month to date cooling degree days 0 0  
Year to date cooling degree days 870 573  
Growing Degree Days 2 (Base 50)    
Moisture  
Dew Point 50 °F    
Average Humidity 82    
Maximum Humidity 100    
Minimum Humidity 63    
Precipitation  
Precipitation T in 0.10 in 1.05 in (1952)
Month to date precipitation 1.61 1.87  
Year to date precipitation 37.97 36.94  
Snow  
Snow 0.00 in - - ()
Month to date snowfall T  
Since 1 July snowfall T  
Since 1 September snowfall T  
Snow Depth 0.00 in    
Sea Level Pressure  
Sea Level Pressure 30.28 in    
Wind  
Wind Speed 2 mph (WSW)    
Max Wind Speed 8 mph    
Max Gust Speed -    
Visibility 9 miles    
Events Rain    
T = Trace of Precipitation, MM = Missing Value Source: NWS Daily Summary

Daily Weather History Graph

Daily Weather History Graph

Search for Another Location

Airport or City:

Astronomy

Nov. 20, 2011 Rise Set
Actual Time 7:05 AM EST 5:08 PM EST
Civil Twilight 6:37 AM EST 5:36 PM EST
Nautical Twilight 6:05 AM EST 6:08 PM EST
Astronomical Twilight 5:34 AM EST 6:39 PM EST
Moon 1:38 AM EST (11/20) 1:51 PM EST (11/20)
Length of Visible Light 10h 59m
Length of Day
10h 02m
Waning Crescent, 27% of the Moon is Illuminated
Nov 20
Waning Crescent
Nov 25
New
Dec 2
First Quarter
Dec 10
Full
Dec 17
Last Quarter

Hourly Weather History & Observations

Time (EST) Temp. Windchill Dew Point Humidity Pressure Visibility Wind Dir Wind Speed Gust Speed Precip Events Conditions
12:15 AM 37.4 °F - 37.4 °F 100% 30.32 in 10.0 mi Calm Calm - N/A   Clear
12:35 AM 39.2 °F 37.0 °F 37.4 °F 93% 30.32 in 10.0 mi West 3.5 mph - N/A   Clear
12:55 AM 39.2 °F - 37.4 °F 93% 30.31 in 10.0 mi Calm Calm - N/A   Clear
1:15 AM 39.2 °F - 39.2 °F 100% 30.31 in 10.0 mi Calm Calm - N/A   Clear
1:35 AM 37.4 °F - 37.4 °F 100% 30.31 in 10.0 mi Calm Calm - N/A   Clear
1:55 AM 37.4 °F - 37.4 °F 100% 30.31 in 7.0 mi Calm Calm - N/A   Clear
2:15 AM 37.4 °F - 37.4 °F 100% 30.31 in 7.0 mi Calm Calm - N/A   Clear
2:35 AM 37.4 °F - 37.4 °F 100% 30.31 in 10.0 mi Calm Calm - N/A   Scattered Clouds
2:55 AM 37.4 °F - 37.4 °F 100% 30.31 in 10.0 mi Calm Calm - N/A   Scattered Clouds
3:15 AM 37.4 °F - 37.4 °F 100% 30.30 in 4.0 mi Calm Calm - N/A   Scattered Clouds
3:35 AM 35.6 °F - 35.6 °F 100% 30.31 in 4.0 mi Calm Calm - N/A   Clear
3:55 AM 37.4 °F - 37.4 °F 100% 30.30 in 10.0 mi Calm Calm - N/A   Clear
4:15 AM 37.4 °F - 37.4 °F 100% 30.30 in 4.0 mi Calm Calm - N/A   Clear
4:35 AM 37.4 °F - 37.4 °F 100% 30.31 in 2.5 mi Calm Calm - N/A   Clear
5:15 AM 41.0 °F - 41.0 °F 100% 30.31 in 7.0 mi Calm Calm - N/A   Overcast
5:35 AM 42.8 °F - 42.8 °F 100% 30.31 in 10.0 mi Calm Calm - N/A   Overcast
5:55 AM 41.0 °F - 41.0 °F 100% 30.31 in 5.0 mi Calm Calm - N/A   Scattered Clouds
6:15 AM 39.2 °F - 39.2 °F 100% 30.31 in 4.0 mi Calm Calm - N/A   Clear
6:55 AM 41.0 °F - 41.0 °F 100% 30.31 in 7.0 mi Calm Calm - N/A   Clear
7:35 AM 41.0 °F - 41.0 °F 100% 30.30 in 3.0 mi Calm Calm - N/A   Clear
7:55 AM 42.8 °F - 42.8 °F 100% 30.31 in 5.0 mi Calm Calm - N/A   Clear
8:15 AM 46.4 °F 44.3 °F 46.4 °F 100% 30.31 in 10.0 mi NW 4.6 mph - N/A   Clear
8:55 AM 50.0 °F - 48.2 °F 94% 30.33 in 10.0 mi WNW 3.5 mph - N/A   Clear
9:15 AM 51.8 °F - 48.2 °F 88% 30.33 in 10.0 mi West 4.6 mph - N/A   Clear
9:55 AM 53.6 °F - 48.2 °F 82% 30.33 in 10.0 mi West 5.8 mph - N/A   Clear
10:15 AM 57.2 °F - 51.8 °F 82% 30.33 in 10.0 mi West 5.8 mph - N/A   Clear
10:35 AM 57.2 °F - 51.8 °F 82% 30.33 in 10.0 mi West 5.8 mph - N/A   Clear
10:55 AM 60.8 °F - 51.8 °F 72% 30.32 in 10.0 mi West 5.8 mph - N/A   Clear
11:15 AM 62.6 °F - 53.6 °F 72% 30.32 in 10.0 mi West 4.6 mph - N/A   Clear
11:35 AM 64.4 °F - 53.6 °F 68% 30.31 in 10.0 mi West 8.1 mph - N/A   Clear
11:55 AM 64.4 °F - 53.6 °F 68% 30.30 in 10.0 mi WSW 8.1 mph - N/A   Clear
12:15 PM 66.2 °F - 55.4 °F 68% 30.30 in 10.0 mi West 8.1 mph - N/A   Clear
12:55 PM 68.0 °F - 55.4 °F 64% 30.28 in 10.0 mi WNW 5.8 mph - N/A   Clear
1:15 PM 69.8 °F - 55.4 °F 60% 30.27 in 10.0 mi West 5.8 mph - N/A   Clear
1:55 PM 68.0 °F - 55.4 °F 64% 30.26 in 10.0 mi Calm Calm - N/A   Clear
2:15 PM 69.8 °F - 55.4 °F 60% 30.25 in 10.0 mi Calm Calm - N/A   Clear
2:35 PM 68.0 °F - 55.4 °F 64% 30.25 in 10.0 mi Calm Calm - N/A   Clear
2:55 PM 68.0 °F - 55.4 °F 64% 30.24 in 10.0 mi Calm Calm - N/A   Clear
3:15 PM 68.0 °F - 55.4 °F 64% 30.25 in 10.0 mi Calm Calm - N/A   Scattered Clouds
3:35 PM 68.0 °F - 55.4 °F 64% 30.25 in 10.0 mi Calm Calm - N/A   Mostly Cloudy
3:55 PM 68.0 °F - 55.4 °F 64% 30.24 in 10.0 mi Calm Calm - N/A   Scattered Clouds
4:15 PM 66.2 °F - 55.4 °F 68% 30.23 in 10.0 mi Calm Calm - N/A   Scattered Clouds
4:35 PM 66.2 °F - 55.4 °F 68% 30.24 in 10.0 mi South 6.9 mph - N/A   Clear
4:55 PM 66.2 °F - 55.4 °F 68% 30.24 in 10.0 mi SSW 4.6 mph - N/A   Clear
5:15 PM 64.4 °F - 55.4 °F 73% 30.25 in 10.0 mi SSW 8.1 mph - N/A   Clear
5:35 PM 62.6 °F - 55.4 °F 77% 30.25 in 10.0 mi South 6.9 mph - N/A   Scattered Clouds
5:55 PM 62.6 °F - 55.4 °F 77% 30.25 in 10.0 mi SSW 8.1 mph - N/A   Scattered Clouds
6:15 PM 62.6 °F - 55.4 °F 77% 30.26 in 10.0 mi SSW 4.6 mph - N/A   Clear
6:35 PM 62.6 °F - 55.4 °F 77% 30.26 in 10.0 mi Calm Calm - N/A   Scattered Clouds
6:55 PM 60.8 °F - 55.4 °F 82% 30.25 in 10.0 mi Calm Calm - N/A   Overcast
7:15 PM 60.8 °F - 55.4 °F 82% 30.25 in 10.0 mi SSW 3.5 mph - N/A   Scattered Clouds
7:35 PM 60.8 °F - 55.4 °F 82% 30.25 in 10.0 mi Calm Calm - N/A   Scattered Clouds
7:55 PM 60.8 °F - 57.2 °F 88% 30.24 in 10.0 mi Calm Calm - N/A   Scattered Clouds
8:15 PM 60.8 °F - 57.2 °F 88% 30.24 in 10.0 mi SW 3.5 mph - N/A Rain Light Rain
8:35 PM 60.8 °F - 57.2 °F 88% 30.24 in 10.0 mi SW 3.5 mph - N/A   Scattered Clouds
8:55 PM 60.8 °F - 57.2 °F 88% 30.23 in 10.0 mi SSW 4.6 mph - N/A   Clear
9:15 PM 59.0 °F - 57.2 °F 94% 30.23 in 10.0 mi Calm Calm - N/A   Clear
9:35 PM 59.0 °F - 57.2 °F 94% 30.24 in 10.0 mi Calm Calm - N/A   Mostly Cloudy
9:55 PM 57.2 °F - 57.2 °F 100% 30.23 in 10.0 mi Calm Calm - N/A   Mostly Cloudy
10:15 PM 55.4 °F - 55.4 °F 100% 30.23 in 10.0 mi Calm Calm - N/A   Overcast
10:35 PM 55.4 °F - 55.4 °F 100% 30.23 in 10.0 mi Calm Calm - N/A   Overcast
10:55 PM 57.2 °F - 57.2 °F 100% 30.23 in 10.0 mi Calm Calm - N/A   Overcast
11:15 PM 57.2 °F - 57.2 °F 100% 30.24 in 10.0 mi Calm Calm - N/A   Overcast
11:35 PM 57.2 °F - 57.2 °F 100% 30.23 in 10.0 mi Calm Calm - N/A   Overcast
11:55 PM 57.2 °F - 57.2 °F 100% 30.23 in 10.0 mi Calm Calm - N/A   Overcast